QPF
0.05 0.04 0.05 0.06 0.06 0.05 0.05 0.05 0.04 0.03 0.03 0.03 0.02 0.02 0.02 0.02 0.01 0.02 0.02 0.02 0.03 0.04 0.04 0.05 0.05 0.06 0.06 0.05 0.05 0.05 0.06 0.07 0.09 0.11 0.10 0.09 0.08 0.06 0.05 0.04 0.03 0.02 0.01
0.02 0.02 0.02 0.02 0.03 0.03 0.02 0.02 0.02 0.02 0.02 0.02 0.02 0.01 0.01 0.01 0.01 0.01 0.02 0.02 0.03 0.03 0.03 0.04 0.04 0.05 0.05 0.05 0.06 0.06 0.06 0.06 0.07 0.08 0.08 0.06 0.05 0.04 0.03 0.02 0.02 0.01 0.01
0.02 0.01 0.01 0.01 0.01 0.01 0.01 0.01 0.01 0.01 0.01 0.00 0.00 0.00 0.01 0.01 0.01 0.01 0.02 0.02 0.03 0.03 0.03 0.03 0.03 0.03 0.03 0.03 0.02 0.02 0.02 0.03 0.03 0.03 0.03 0.03 0.02 0.02 0.01 0.01 0.01 0.01 0.01
0.01 0.01 0.01 0.01 0.01 0.00 0.00 0.00 0.00 0.00 0.00 0.00 0.00 0.00 0.00 0.00 0.01 0.01 0.01 0.01 0.01 0.01 0.01 0.01 0.00 0.00 0.00 0.00 0.00 0.00 0.00 0.01 0.01 0.01 0.01 0.01 0.01 0.01 0.01 0.01 0.00 0.00 0.00
0.00 0.00 0.00 0.00 0.00 0.00 0.00 0.00 0.00 0.00 0.00 0.00 0.00 0.00 0.00 0.00 0.00 0.01 0.01 0.01 0.01 0.00 0.00 0.00 0.00 0.00 0.00 0.00 0.00 0.00 0.00 0.00 0.00 0.01 0.01 0.01 0.00 0.00 0.00 0.00 0.00 0.00 0.00
0.00 0.00 0.00 0.00 0.00 0.00 0.00 0.00 0.00 0.00 0.00 0.00 0.00 0.00 0.00 0.00 0.00 0.00 0.00 0.00 0.00 0.00 0.00 0.00 0.00 0.00 0.00 0.00 0.00 0.00 0.00 0.00 0.00 0.00 0.00 0.00 0.00 0.00 0.00 0.00 0.00 0.00 0.00
0.00 0.00 0.00 0.00 0.00 0.00 0.00 0.00 0.00 0.00 0.00 0.00 0.00 0.00 0.00 0.00 0.00 0.00 0.00 0.00 0.00 0.00 0.00 0.00 0.00 0.00 0.00 0.00 0.00 0.00 0.00 0.00 0.00 0.00 0.00 0.00 0.00 0.00 0.00 0.00 0.00 0.00 0.00
0.00 0.00 0.00 0.00 0.00 0.00 0.00 0.00 0.00 0.00 0.00 0.00 0.00 0.00 0.00 0.00 0.00 0.00 0.00 0.00 0.00 0.00 0.00 0.00 0.00 0.00 0.00 0.00 0.00 0.00 0.00 0.00 0.00 0.01 0.00 0.00 0.00 0.00 0.00 0.00 0.00 0.00 0.00
0.00 0.00 0.00 0.00 0.00 0.00 0.00 0.00 0.00 0.00 0.00 0.00 0.01 0.01 0.01 0.00 0.00 0.00 0.00 0.00 0.00 0.00 0.00 0.00 0.00 0.00 0.00 0.00 0.00 0.00 0.00 0.00 0.01 0.01 0.00 0.00 0.00 0.00 0.00 0.00 0.00 0.00 0.00
0.00 0.00 0.00 0.00 0.00 0.00 0.00 0.00 0.00 0.00 0.00 0.00 0.00 0.00 0.00 0.00 0.00 0.00 0.00 0.00 0.00 0.00 0.00 0.00 0.00 0.00 0.00 0.00 0.00 0.00 0.00 0.00 0.00 0.00 0.01 0.00 0.00 0.00 0.01 0.01 0.01 0.01 0.00
0.00 0.00 0.00 0.00 0.00 0.00 0.00 0.00 0.00 0.00 0.00 0.00 0.00 0.00 0.00 0.00 0.00 0.00 0.00 0.00 0.00 0.00 0.00 0.01 0.00 0.00 0.00 0.00 0.00 0.00 0.00 0.00 0.00 0.00 0.01 0.01 0.00 0.01 0.01 0.02 0.02 0.02 0.01
0.00 0.00 0.00 0.00 0.00 0.00 0.00 0.00 0.00 0.00 0.00 0.00 0.00 0.00 0.00 0.00 0.00 0.00 0.00 0.00 0.00 0.00 0.00 0.00 0.00 0.00 0.00 0.00 0.00 0.00 0.00 0.00 0.01 0.02 0.02 0.01 0.01 0.01 0.02 0.02 0.02 0.02 0.02
0.00 0.00 0.00 0.00 0.00 0.00 0.00 0.00 0.00 0.00 0.00 0.00 0.00 0.00 0.00 0.00 0.00 0.00 0.00 0.00 0.00 0.00 0.00 0.00 0.00 0.00 0.00 0.00 0.00 0.00 0.00 0.00 0.01 0.01 0.01 0.01 0.02 0.02 0.02 0.02 0.01 0.01 0.01
0.00 0.00 0.00 0.00 0.00 0.00 0.00 0.00 0.00 0.00 0.00 0.00 0.00 0.00 0.00 0.00 0.00 0.00 0.00 0.00 0.00 0.00 0.00 0.00 0.00 0.01 0.00 0.01 0.01 0.01 0.01 0.01 0.02 0.02 0.02 0.02 0.01 0.01 0.01 0.01 0.01 0.00 0.00
0.00 0.00 0.00 0.00 0.00 0.00 0.00 0.00 0.00 0.00 0.00 0.00 0.00 0.00 0.00 0.00 0.00 0.00 0.00 0.00 0.00 0.00 0.00 0.00 0.01 0.01 0.01 0.01 0.01 0.01 0.02 0.01 0.01 0.01 0.01 0.02 0.01 0.01 0.01 0.01 0.00 0.00 0.00
0.00 0.00 0.00 0.00 0.00 0.00 0.00 0.00 0.00 0.00 0.00 0.00 0.00 0.00 0.00 0.00 0.00 0.00 0.00 0.00 0.00 0.00 0.00 0.01 0.01 0.01 0.01 0.01 0.01 0.01 0.01 0.02 0.02 0.01 0.01 0.01 0.01 0.01 0.01 0.00 0.00 0.00 0.00
0.00 0.00 0.00 0.00 0.00 0.00 0.00 0.00 0.00 0.00 0.00 0.00 0.00 0.00 0.00 0.00 0.00 0.00 0.00 0.00 0.00 0.01 0.01 0.01 0.01 0.01 0.01 0.01 0.01 0.00 0.00 0.01 0.01 0.01 0.01 0.01 0.01 0.01 0.00 0.00 0.00 0.00 0.00
0.00 0.00 0.00 0.00 0.00 0.00 0.00 0.00 0.00 0.00 0.00 0.00 0.00 0.00 0.00 0.00 0.00 0.00 0.00 0.00 0.00 0.00 0.01 0.01 0.00 0.00 0.00 0.00 0.00 0.00 0.00 0.00 0.00 0.00 0.01 0.00 0.00 0.00 0.00 0.00 0.00 0.00 0.00
0.00 0.00 0.00 0.00 0.00 0.00 0.00 0.00 0.00 0.00 0.00 0.00 0.00 0.00 0.00 0.00 0.00 0.00 0.00 0.00 0.00 0.00 0.00 0.00 0.00 0.00 0.00 0.00 0.00 0.00 0.00 0.00 0.00 0.00 0.00 0.00 0.00 0.00 0.00 0.00 0.00 0.00 0.00
0.00 0.00 0.00 0.00 0.00 0.00 0.00 0.00 0.00 0.00 0.00 0.00 0.00 0.00 0.00 0.00 0.00 0.00 0.00 0.00 0.00 0.00 0.00 0.00 0.00 0.00 0.00 0.00 0.00 0.00 0.00 0.00 0.00 0.00 0.00 0.00 0.00 0.00 0.00 0.00 0.00 0.00 0.00
0.00 0.00 0.00 0.00 0.00 0.00 0.00 0.00 0.00 0.00 0.00 0.00 0.00 0.00 0.00 0.00 0.00 0.00 0.00 0.00 0.00 0.00 0.00 0.00 0.00 0.00 0.00 0.00 0.00 0.00 0.00 0.00 0.00 0.00 0.00 0.00 0.00 0.00 0.00 0.00 0.00 0.00 0.00
0.00 0.00 0.00 0.00 0.00 0.00 0.00 0.00 0.00 0.00 0.00 0.00 0.00 0.00 0.00 0.00 0.00 0.00 0.00 0.00 0.00 0.00 0.00 0.00 0.00 0.00 0.00 0.00 0.00 0.00 0.00 0.00 0.00 0.00 0.00 0.00 0.00 0.00 0.00 0.00 0.00 0.00 0.00
0.00 0.00 0.00 0.00 0.00 0.00 0.00 0.00 0.00 0.00 0.00 0.00 0.00 0.00 0.00 0.00 0.00 0.00 0.00 0.00 0.00 0.00 0.00 0.00 0.00 0.00 0.00 0.00 0.00 0.00 0.00 0.00 0.00 0.00 0.00 0.00 0.00 0.00 0.00 0.00 0.00 0.00 0.00
0.00 0.00 0.00 0.00 0.00 0.00 0.00 0.00 0.00 0.00 0.00 0.00 0.00 0.00 0.00 0.00 0.00 0.00 0.00 0.00 0.00 0.00 0.00 0.00 0.00 0.00 0.00 0.00 0.00 0.00 0.00 0.00 0.00 0.00 0.00 0.00 0.00 0.00 0.00 0.00 0.00 0.00 0.00
0.00 0.00 0.00 0.00 0.00 0.00 0.00 0.00 0.00 0.00 0.00 0.00 0.00 0.00 0.00 0.00 0.00 0.00 0.00 0.00 0.00 0.00 0.00 0.00 0.00 0.00 0.00 0.00 0.00 0.00 0.00 0.00 0.00 0.00 0.00 0.00 0.00 0.00 0.00 0.00 0.00 0.00 0.00
0.00 0.00 0.00 0.00 0.00 0.00 0.00 0.00 0.00 0.00 0.00 0.00 0.00 0.00 0.00 0.00 0.00 0.00 0.00 0.00 0.00 0.00 0.00 0.00 0.00 0.00 0.00 0.00 0.00 0.00 0.00 0.00 0.00 0.00 0.00 0.00 0.00 0.00 0.00 0.00 0.00 0.00 0.00
MSLP
1019.91 1020.11 1020.38 1020.69 1021.02 1021.35 1021.65 1021.92 1022.16 1022.35 1022.52 1022.65 1022.76 1022.85 1022.94 1023.01 1023.09 1023.16 1023.24 1023.31 1023.38 1023.43 1023.45 1023.44 1023.38 1023.27 1023.11 1022.91 1022.67 1022.41 1022.16 1021.91 1021.69 1021.51 1021.35 1021.22 1021.10 1020.99 1020.88 1020.75 1020.61 1020.45 1020.27
1021.25 1021.46 1021.72 1022.00 1022.29 1022.56 1022.80 1023.01 1023.17 1023.29 1023.37 1023.43 1023.48 1023.51 1023.54 1023.57 1023.61 1023.65 1023.69 1023.73 1023.76 1023.77 1023.75 1023.71 1023.63 1023.51 1023.35 1023.17 1022.97 1022.76 1022.55 1022.35 1022.16 1021.98 1021.81 1021.64 1021.47 1021.28 1021.07 1020.84 1020.59 1020.33 1020.05
1022.54 1022.74 1022.97 1023.21 1023.44 1023.65 1023.82 1023.95 1024.03 1024.08 1024.10 1024.10 1024.09 1024.08 1024.07 1024.07 1024.07 1024.07 1024.08 1024.07 1024.05 1024.01 1023.95 1023.86 1023.75 1023.61 1023.45 1023.28 1023.11 1022.94 1022.77 1022.61 1022.45 1022.29 1022.12 1021.92 1021.71 1021.46 1021.19 1020.89 1020.57 1020.24 1019.90
1023.67 1023.87 1024.07 1024.26 1024.42 1024.55 1024.64 1024.70 1024.72 1024.71 1024.68 1024.64 1024.60 1024.57 1024.54 1024.51 1024.49 1024.46 1024.43 1024.38 1024.31 1024.22 1024.10 1023.96 1023.81 1023.64 1023.47 1023.31 1023.15 1023.01 1022.87 1022.74 1022.60 1022.45 1022.27 1022.07 1021.83 1021.56 1021.25 1020.91 1020.56 1020.19 1019.82
1024.56 1024.76 1024.92 1025.06 1025.15 1025.21 1025.23 1025.22 1025.19 1025.14 1025.09 1025.04 1024.99 1024.96 1024.93 1024.91 1024.88 1024.84 1024.78 1024.69 1024.58 1024.43 1024.26 1024.07 1023.87 1023.67 1023.47 1023.30 1023.14 1023.00 1022.88 1022.75 1022.62 1022.47 1022.30 1022.09 1021.83 1021.55 1021.23 1020.89 1020.53 1020.16 1019.79
1025.18 1025.36 1025.50 1025.58 1025.62 1025.61 1025.57 1025.52 1025.45 1025.39 1025.33 1025.30 1025.28 1025.27 1025.27 1025.27 1025.25 1025.21 1025.13 1025.01 1024.85 1024.66 1024.44 1024.19 1023.94 1023.70 1023.48 1023.28 1023.11 1022.96 1022.82 1022.69 1022.55 1022.39 1022.20 1021.97 1021.71 1021.42 1021.11 1020.78 1020.45 1020.11 1019.77
1025.53 1025.69 1025.80 1025.84 1025.83 1025.77 1025.70 1025.62 1025.54 1025.49 1025.46 1025.45 1025.48 1025.52 1025.56 1025.58 1025.58 1025.55 1025.46 1025.32 1025.13 1024.89 1024.62 1024.33 1024.04 1023.75 1023.49 1023.26 1023.05 1022.87 1022.71 1022.55 1022.38 1022.19 1021.98 1021.74 1021.47 1021.18 1020.88 1020.58 1020.28 1019.99 1019.71
1025.65 1025.80 1025.88 1025.89 1025.85 1025.77 1025.68 1025.59 1025.53 1025.50 1025.51 1025.56 1025.63 1025.72 1025.80 1025.86 1025.88 1025.85 1025.76 1025.59 1025.37 1025.09 1024.78 1024.45 1024.11 1023.78 1023.48 1023.21 1022.97 1022.75 1022.54 1022.34 1022.13 1021.91 1021.66 1021.39 1021.11 1020.83 1020.54 1020.27 1020.02 1019.78 1019.57
1025.65 1025.78 1025.84 1025.84 1025.78 1025.70 1025.62 1025.55 1025.52 1025.53 1025.58 1025.68 1025.80 1025.93 1026.04 1026.13 1026.15 1026.11 1026.00 1025.81 1025.56 1025.24 1024.89 1024.51 1024.13 1023.77 1023.43 1023.12 1022.83 1022.57 1022.32 1022.08 1021.82 1021.55 1021.27 1020.97 1020.68 1020.39 1020.12 1019.88 1019.67 1019.49 1019.34
1025.60 1025.72 1025.78 1025.77 1025.73 1025.66 1025.61 1025.58 1025.59 1025.64 1025.74 1025.87 1026.03 1026.18 1026.30 1026.38 1026.40 1026.34 1026.19 1025.97 1025.67 1025.32 1024.92 1024.51 1024.10 1023.70 1023.33 1022.98 1022.66 1022.36 1022.07 1021.78 1021.49 1021.18 1020.86 1020.53 1020.22 1019.92 1019.66 1019.44 1019.27 1019.14 1019.05
1025.58 1025.70 1025.76 1025.77 1025.76 1025.73 1025.72 1025.73 1025.79 1025.89 1026.02 1026.17 1026.34 1026.49 1026.59 1026.65 1026.63 1026.52 1026.33 1026.06 1025.72 1025.32 1024.89 1024.45 1024.01 1023.58 1023.19 1022.82 1022.48 1022.15 1021.83 1021.51 1021.18 1020.83 1020.48 1020.13 1019.79 1019.49 1019.22 1019.02 1018.87 1018.78 1018.74
1025.61 1025.74 1025.82 1025.87 1025.89 1025.92 1025.96 1026.03 1026.13 1026.25 1026.41 1026.56 1026.71 1026.83 1026.90 1026.91 1026.83 1026.67 1026.43 1026.10 1025.71 1025.28 1024.82 1024.35 1023.90 1023.46 1023.05 1022.68 1022.32 1021.98 1021.65 1021.30 1020.95 1020.58 1020.20 1019.83 1019.47 1019.15 1018.88 1018.68 1018.54 1018.47 1018.46
1025.68 1025.82 1025.93 1026.03 1026.12 1026.21 1026.30 1026.42 1026.55 1026.70 1026.85 1026.99 1027.10 1027.18 1027.19 1027.13 1026.99 1026.77 1026.47 1026.10 1025.68 1025.22 1024.74 1024.27 1023.81 1023.38 1022.98 1022.61 1022.25 1021.91 1021.57 1021.22 1020.85 1020.47 1020.07 1019.68 1019.30 1018.97 1018.69 1018.47 1018.33 1018.27 1018.26
1025.74 1025.90 1026.06 1026.21 1026.36 1026.51 1026.66 1026.82 1026.97 1027.12 1027.26 1027.37 1027.43 1027.45 1027.40 1027.28 1027.08 1026.81 1026.47 1026.07 1025.63 1025.17 1024.70 1024.24 1023.80 1023.39 1023.00 1022.65 1022.31 1021.98 1021.65 1021.30 1020.93 1020.53 1020.13 1019.72 1019.32 1018.97 1018.66 1018.43 1018.27 1018.19 1018.18
1025.74 1025.93 1026.13 1026.34 1026.55 1026.75 1026.94 1027.13 1027.29 1027.43 1027.54 1027.61 1027.62 1027.58 1027.47 1027.30 1027.06 1026.76 1026.41 1026.01 1025.59 1025.15 1024.71 1024.29 1023.89 1023.51 1023.17 1022.84 1022.53 1022.22 1021.90 1021.55 1021.18 1020.79 1020.37 1019.94 1019.53 1019.14 1018.81 1018.54 1018.35 1018.24 1018.20
1025.65 1025.87 1026.12 1026.37 1026.62 1026.86 1027.08 1027.28 1027.44 1027.56 1027.63 1027.65 1027.62 1027.53 1027.39 1027.19 1026.94 1026.64 1026.31 1025.95 1025.57 1025.19 1024.81 1024.44 1024.10 1023.78 1023.48 1023.19 1022.91 1022.61 1022.31 1021.97 1021.60 1021.19 1020.76 1020.32 1019.88 1019.46 1019.10 1018.79 1018.56 1018.40 1018.32
1025.47 1025.72 1026.00 1026.28 1026.56 1026.82 1027.05 1027.25 1027.39 1027.48 1027.52 1027.50 1027.43 1027.32 1027.16 1026.96 1026.73 1026.47 1026.19 1025.89 1025.59 1025.29 1024.99 1024.70 1024.42 1024.16 1023.91 1023.66 1023.40 1023.13 1022.83 1022.49 1022.12 1021.70 1021.25 1020.79 1020.32 1019.87 1019.46 1019.11 1018.83 1018.62 1018.49
1025.24 1025.51 1025.80 1026.10 1026.39 1026.66 1026.88 1027.06 1027.18 1027.24 1027.25 1027.20 1027.11 1026.99 1026.84 1026.66 1026.48 1026.28 1026.08 1025.88 1025.67 1025.46 1025.25 1025.04 1024.84 1024.63 1024.42 1024.20 1023.97 1023.70 1023.40 1023.06 1022.67 1022.24 1021.77 1021.28 1020.78 1020.30 1019.85 1019.45 1019.12 1018.86 1018.67
1025.01 1025.28 1025.57 1025.88 1026.17 1026.42 1026.63 1026.79 1026.88 1026.92 1026.90 1026.84 1026.74 1026.63 1026.51 1026.38 1026.26 1026.14 1026.03 1025.92 1025.81 1025.70 1025.58 1025.45 1025.31 1025.15 1024.97 1024.77 1024.54 1024.27 1023.96 1023.60 1023.19 1022.74 1022.24 1021.73 1021.20 1020.68 1020.20 1019.76 1019.39 1019.08 1018.84
1024.81 1025.08 1025.37 1025.66 1025.94 1026.18 1026.37 1026.51 1026.58 1026.60 1026.57 1026.51 1026.42 1026.34 1026.26 1026.19 1026.14 1026.10 1026.08 1026.06 1026.04 1026.01 1025.96 1025.89 1025.79 1025.66 1025.50 1025.30 1025.06 1024.77 1024.44 1024.05 1023.62 1023.14 1022.62 1022.08 1021.53 1020.99 1020.47 1020.00 1019.59 1019.25 1018.97
1024.68 1024.94 1025.22 1025.50 1025.76 1025.99 1026.17 1026.29 1026.35 1026.36 1026.34 1026.29 1026.23 1026.18 1026.14 1026.13 1026.15 1026.18 1026.23 1026.28 1026.33 1026.36 1026.36 1026.32 1026.25 1026.13 1025.96 1025.75 1025.48 1025.17 1024.81 1024.39 1023.93 1023.42 1022.88 1022.32 1021.75 1021.19 1020.66 1020.17 1019.74 1019.37 1019.07
1024.62 1024.86 1025.13 1025.40 1025.65 1025.87 1026.04 1026.16 1026.23 1026.25 1026.24 1026.22 1026.19 1026.18 1026.19 1026.23 1026.29 1026.38 1026.48 1026.58 1026.66 1026.72 1026.74 1026.72 1026.64 1026.51 1026.32 1026.08 1025.78 1025.44 1025.04 1024.59 1024.10 1023.57 1023.01 1022.44 1021.86 1021.30 1020.76 1020.27 1019.83 1019.46 1019.15
1024.59 1024.82 1025.08 1025.34 1025.59 1025.81 1025.99 1026.12 1026.21 1026.26 1026.28 1026.29 1026.29 1026.32 1026.36 1026.44 1026.53 1026.65 1026.78 1026.90 1026.99 1027.06 1027.08 1027.04 1026.94 1026.79 1026.57 1026.30 1025.96 1025.58 1025.15 1024.67 1024.16 1023.62 1023.05 1022.47 1021.90 1021.34 1020.81 1020.33 1019.91 1019.54 1019.23
1024.55 1024.78 1025.03 1025.29 1025.54 1025.78 1025.98 1026.13 1026.25 1026.33 1026.39 1026.43 1026.48 1026.53 1026.60 1026.70 1026.81 1026.94 1027.07 1027.19 1027.28 1027.33 1027.33 1027.27 1027.15 1026.97 1026.72 1026.41 1026.05 1025.64 1025.18 1024.68 1024.16 1023.60 1023.04 1022.47 1021.91 1021.37 1020.86 1020.40 1019.99 1019.64 1019.35
1024.49 1024.70 1024.95 1025.22 1025.49 1025.74 1025.97 1026.16 1026.31 1026.43 1026.52 1026.60 1026.67 1026.74 1026.83 1026.94 1027.06 1027.18 1027.30 1027.41 1027.49 1027.52 1027.50 1027.42 1027.28 1027.07 1026.80 1026.47 1026.09 1025.65 1025.18 1024.67 1024.14 1023.59 1023.03 1022.48 1021.93 1021.42 1020.93 1020.49 1020.11 1019.78 1019.51
1024.37 1024.58 1024.84 1025.12 1025.40 1025.68 1025.93 1026.15 1026.34 1026.49 1026.61 1026.72 1026.81 1026.90 1027.00 1027.10 1027.22 1027.34 1027.45 1027.54 1027.61 1027.63 1027.60 1027.51 1027.35 1027.14 1026.86 1026.52 1026.12 1025.69 1025.21 1024.70 1024.17 1023.63 1023.09 1022.55 1022.03 1021.53 1021.07 1020.66 1020.29 1019.98 1019.73
Thickness
5629 5629 5628 5626 5624 5622 5619 5616 5614 5612 5610 5608 5605 5602 5600 5598 5596 5594 5591 5589 5586 5584 5581 5579 5575 5573 5571 5568 5566 5563 5560 5557 5551 5547 5546 5544 5542 5539 5535 5531 5528 5524 5521
5612 5613 5612 5610 5608 5606 5603 5601 5599 5597 5594 5592 5589 5587 5584 5581 5579 5577 5574 5572 5569 5567 5564 5561 5558 5556 5552 5549 5546 5544 5540 5537 5534 5529 5527 5526 5525 5522 5520 5517 5514 5511 5508
5598 5598 5596 5594 5592 5590 5587 5585 5583 5581 5578 5576 5574 5571 5567 5564 5562 5559 5557 5555 5552 5549 5547 5544 5541 5538 5534 5530 5527 5524 5521 5519 5515 5512 5509 5508 5507 5506 5504 5502 5500 5497 5495
5583 5582 5580 5578 5576 5574 5572 5570 5568 5565 5563 5560 5557 5554 5551 5548 5546 5544 5541 5538 5536 5534 5531 5527 5524 5520 5516 5513 5509 5505 5503 5500 5498 5495 5492 5490 5490 5490 5488 5486 5484 5484 5483
5568 5566 5564 5563 5561 5559 5557 5555 5553 5551 5548 5545 5542 5539 5536 5533 5531 5528 5526 5523 5520 5517 5514 5511 5507 5504 5500 5496 5493 5489 5486 5482 5480 5477 5475 5474 5474 5474 5473 5472 5470 5470 5472
5554 5552 5550 5549 5548 5546 5544 5541 5539 5536 5533 5530 5527 5524 5522 5519 5517 5515 5512 5508 5505 5501 5497 5494 5491 5487 5483 5480 5477 5475 5473 5470 5466 5464 5462 5462 5462 5463 5462 5462 5460 5458 5459
5541 5540 5538 5536 5535 5533 5532 5528 5525 5522 5520 5517 5514 5511 5508 5506 5504 5501 5499 5495 5491 5487 5483 5479 5476 5472 5469 5466 5464 5463 5462 5462 5460 5457 5455 5455 5455 5457 5456 5455 5455 5453 5453
5530 5529 5527 5526 5524 5522 5520 5517 5514 5512 5509 5506 5503 5500 5497 5494 5492 5489 5486 5482 5478 5475 5471 5468 5464 5461 5459 5455 5453 5452 5452 5453 5454 5453 5452 5453 5454 5455 5454 5453 5452 5450 5452
5521 5519 5517 5516 5514 5512 5510 5507 5505 5503 5500 5497 5493 5490 5486 5483 5481 5478 5475 5471 5467 5464 5462 5459 5457 5454 5452 5449 5447 5445 5446 5448 5451 5451 5452 5453 5455 5456 5455 5452 5449 5448 5448
5512 5511 5509 5507 5505 5504 5502 5500 5498 5495 5492 5489 5485 5481 5477 5474 5472 5469 5465 5462 5458 5456 5455 5453 5452 5451 5449 5447 5445 5443 5442 5445 5447 5450 5453 5455 5457 5457 5457 5454 5451 5447 5445
5505 5503 5501 5500 5498 5497 5495 5493 5491 5488 5484 5480 5476 5472 5469 5466 5463 5461 5459 5456 5453 5451 5450 5450 5450 5451 5450 5450 5448 5446 5445 5446 5446 5448 5450 5453 5456 5457 5457 5456 5454 5450 5446
5498 5496 5495 5493 5493 5491 5488 5485 5483 5480 5476 5472 5468 5464 5461 5459 5457 5455 5454 5453 5452 5450 5449 5450 5451 5453 5454 5454 5453 5452 5451 5450 5449 5449 5450 5452 5453 5454 5456 5456 5455 5453 5451
5492 5490 5488 5487 5485 5483 5481 5478 5474 5471 5468 5464 5461 5457 5455 5454 5453 5452 5451 5451 5451 5450 5451 5452 5454 5456 5456 5456 5456 5455 5454 5452 5450 5449 5449 5450 5452 5454 5455 5455 5455 5453 5451
5486 5484 5483 5481 5478 5476 5474 5472 5468 5465 5462 5460 5457 5454 5452 5450 5450 5450 5450 5450 5451 5451 5452 5454 5456 5457 5456 5456 5456 5455 5454 5452 5450 5449 5449 5451 5453 5453 5453 5452 5450 5448 5446
5481 5479 5477 5475 5473 5470 5468 5465 5463 5461 5459 5457 5454 5452 5450 5449 5449 5449 5448 5449 5450 5450 5451 5452 5453 5453 5452 5452 5452 5452 5452 5452 5450 5450 5449 5449 5450 5451 5450 5450 5448 5446 5443
5476 5474 5472 5471 5468 5466 5463 5460 5459 5458 5457 5456 5455 5453 5451 5451 5451 5451 5451 5451 5452 5452 5450 5449 5448 5449 5448 5448 5447 5448 5448 5447 5447 5447 5447 5447 5448 5448 5448 5448 5447 5444 5442
5472 5471 5470 5468 5466 5463 5460 5458 5455 5455 5455 5455 5454 5453 5452 5452 5451 5452 5452 5452 5453 5452 5449 5447 5446 5445 5445 5445 5444 5443 5443 5444 5444 5445 5445 5445 5446 5447 5446 5446 5445 5444 5443
5470 5469 5468 5465 5464 5462 5460 5457 5455 5453 5453 5452 5454 5453 5453 5452 5452 5452 5452 5451 5449 5448 5445 5444 5443 5442 5442 5441 5440 5440 5440 5441 5441 5441 5442 5442 5443 5444 5445 5444 5444 5444 5443
5468 5466 5465 5463 5463 5461 5459 5457 5455 5454 5452 5451 5451 5451 5452 5452 5452 5451 5450 5447 5445 5443 5443 5442 5441 5440 5439 5438 5437 5436 5436 5436 5437 5438 5439 5439 5440 5441 5442 5443 5444 5446 5444
5466 5466 5464 5462 5460 5459 5458 5456 5454 5452 5451 5450 5449 5449 5449 5449 5447 5446 5446 5445 5443 5442 5441 5439 5438 5437 5436 5435 5434 5433 5433 5433 5434 5435 5435 5437 5439 5440 5441 5443 5444 5444 5444
5465 5464 5464 5461 5459 5458 5457 5455 5453 5452 5450 5449 5448 5449 5449 5446 5445 5444 5443 5443 5442 5440 5439 5437 5436 5434 5433 5432 5431 5430 5430 5430 5431 5432 5433 5435 5437 5439 5441 5443 5444 5445 5446
5464 5462 5461 5459 5458 5457 5456 5455 5453 5452 5451 5450 5448 5448 5448 5446 5444 5443 5442 5442 5441 5439 5438 5436 5434 5432 5430 5429 5428 5428 5428 5428 5429 5430 5432 5434 5436 5439 5442 5443 5445 5446 5446
5465 5463 5461 5459 5458 5457 5455 5454 5452 5451 5450 5449 5448 5447 5446 5444 5443 5442 5441 5440 5439 5438 5436 5434 5432 5430 5429 5428 5427 5426 5426 5427 5428 5429 5430 5433 5436 5439 5441 5443 5445 5447 5447
5466 5464 5462 5459 5457 5455 5454 5453 5452 5451 5450 5449 5447 5446 5445 5444 5442 5442 5440 5439 5438 5436 5434 5432 5430 5429 5428 5427 5427 5427 5428 5429 5431 5432 5433 5434 5437 5440 5442 5444 5446 5448 5447
5468 5466 5463 5460 5458 5456 5454 5452 5451 5450 5449 5448 5447 5446 5444 5443 5442 5441 5440 5438 5437 5434 5432 5430 5429 5428 5428 5428 5428 5429 5430 5432 5435 5436 5438 5439 5441 5442 5444 5446 5447 5448 5449
5472 5469 5466 5463 5460 5457 5455 5453 5451 5450 5449 5448 5447 5445 5444 5442 5441 5440 5439 5438 5435 5433 5431 5429 5428 5428 5428 5428 5429 5430 5433 5435 5438 5440 5442 5443 5444 5445 5446 5447 5449 5450 5451